Location: Kershaw
(34.5481°N, 80.5823°W)
Time: 04:30:06
(UTC+00:00)

Tiros 1 despin weight - Pass Details

Date: 12 October 2022
Orbit: 590 x 637 km, 48.2° (Epoch: 30 November)

Event Time Altitude Azimuth Distance (km) Brightness Sun altitude
Rises 22:19:28 0° 313° (NW) 2,852 ? 5.7°
Reaches altitude 10° 22:22:03 10° 326° (NW) 1,956 ? 5.1°
Maximum altitude 22:25:52 27° 24° (NNE) 1,197 ? 4.4°
Drops below altitude 10° 22:29:43 10° 82° (E) 1,979 ? 3.6°
Sets 22:32:21 0° 95° (E) 2,892 ? 3.1°
